Time,TemperatureF,DewpointF,PressureIn,WindDirection,WindDirectionDegrees,WindSpeedMPH,WindSpeedGustMPH,Humidity,HourlyPrecipIn,Conditions,Clouds,dailyrainin,SoftwareType,DateUTC
2013-04-11 00:00:00,63.1,58.3,30.01,SW,225,2.9,4.2,84,0.00,,---,0.00,VWS V14.01,2013-04-11 04:00:00,
2013-04-11 00:05:00,62.9,58.5,30.01,WSW,248,1.8,4.2,85,0.00,,---,0.00,VWS V14.01,2013-04-11 04:05:00,
2013-04-11 00:10:00,62.8,58.0,30.01,WSW,248,1.1,3.8,84,0.00,,---,0.00,VWS V14.01,2013-04-11 04:10:00,
2013-04-11 00:15:00,62.6,58.5,30.01,West,270,0.6,3.1,87,0.00,,---,0.00,VWS V14.01,2013-04-11 04:15:00,
2013-04-11 00:20:00,62.6,58.8,30.01,WSW,248,1.1,5.9,88,0.00,,---,0.00,VWS V14.01,2013-04-11 04:20:00,
2013-04-11 00:25:00,62.4,58.0,30.01,West,270,1.4,3.1,85,0.00,,---,0.00,VWS V14.01,2013-04-11 04:25:00,
2013-04-11 00:30:00,62.2,57.8,30.01,NW,315,0.6,6.8,85,0.00,,---,0.00,VWS V14.01,2013-04-11 04:30:00,
2013-04-11 00:35:00,62.2,57.8,30.01,NW,315,0.3,1.6,85,0.00,,---,0.00,VWS V14.01,2013-04-11 04:35:00,
2013-04-11 00:40:00,61.9,57.5,30.01,North,0,0.3,2.1,85,0.00,,---,0.00,VWS V14.01,2013-04-11 04:40:00,
2013-04-11 00:45:00,61.7,58.0,30.01,WNW,292,0.0,4.2,88,0.00,,---,0.00,VWS V14.01,2013-04-11 04:45:00,
2013-04-11 00:50:00,61.7,57.6,30.01,West,270,0.0,0.0,87,0.00,,---,0.00,VWS V14.01,2013-04-11 04:50:00,
2013-04-11 00:55:00,61.7,58.3,30.01,WSW,248,0.0,0.9,89,0.00,,---,0.00,VWS V14.01,2013-04-11 04:55:00,
2013-04-11 01:00:00,61.3,57.9,30.01,WNW,292,3.2,4.7,89,0.00,,---,0.00,VWS V14.01,2013-04-11 05:00:00,
2013-04-11 01:05:00,61.1,57.7,30.01,WSW,248,1.4,4.7,89,0.00,,---,0.00,VWS V14.01,2013-04-11 05:05:00,
2013-04-11 01:10:00,61.1,58.0,30.01,SW,225,0.0,2.1,90,0.00,,---,0.00,VWS V14.01,2013-04-11 05:10:00,
2013-04-11 01:15:00,61.0,57.9,30.01,WSW,248,0.0,0.9,90,0.00,,---,0.00,VWS V14.01,2013-04-11 05:15:00,
2013-04-11 01:20:00,61.0,57.6,30.01,SSW,202,1.1,1.6,89,0.00,,---,0.00,VWS V14.01,2013-04-11 05:20:00,
2013-04-11 01:25:00,60.8,57.7,30.01,WNW,292,0.6,2.6,90,0.00,,---,0.00,VWS V14.01,2013-04-11 05:25:00,
2013-04-11 01:30:00,60.8,57.4,30.01,WNW,292,1.1,1.6,89,0.00,,---,0.00,VWS V14.01,2013-04-11 05:30:00,
2013-04-11 01:35:00,60.6,57.5,30.00,SW,225,0.0,1.6,90,0.00,,---,0.00,VWS V14.01,2013-04-11 05:35:00,
2013-04-11 01:40:00,60.4,57.3,30.00,SSW,202,0.0,2.6,90,0.00,,---,0.00,VWS V14.01,2013-04-11 05:40:00,
2013-04-11 01:45:00,60.2,57.1,30.00,West,270,2.6,3.8,90,0.00,,---,0.00,VWS V14.01,2013-04-11 05:45:00,
2013-04-11 01:50:00,60.2,57.1,30.00,WNW,292,0.0,0.0,90,0.00,,---,0.00,VWS V14.01,2013-04-11 05:50:00,
2013-04-11 01:55:00,60.2,57.1,30.00,WNW,292,0.6,0.9,90,0.00,,---,0.00,VWS V14.01,2013-04-11 05:55:00,
2013-04-11 02:00:00,60.2,57.8,30.00,SW,225,0.0,0.0,92,0.00,,---,0.00,VWS V14.01,2013-04-11 06:00:00,
2013-04-11 02:05:00,60.2,57.5,30.00,West,270,1.1,1.6,91,0.00,,---,0.00,VWS V14.01,2013-04-11 06:05:00,
2013-04-11 02:10:00,60.1,57.3,30.00,WNW,292,0.0,0.0,91,0.00,,---,0.00,VWS V14.01,2013-04-11 06:10:00,
2013-04-11 02:15:00,59.9,57.2,30.00,WNW,292,0.3,0.5,91,0.00,,---,0.00,VWS V14.01,2013-04-11 06:15:00,
2013-04-11 02:20:00,59.9,57.2,30.00,SSW,202,0.0,0.0,91,0.00,,---,0.00,VWS V14.01,2013-04-11 06:20:00,
2013-04-11 02:25:00,59.9,57.2,30.00,SSW,202,0.0,0.0,91,0.00,,---,0.00,VWS V14.01,2013-04-11 06:25:00,
2013-04-11 02:30:00,59.7,57.0,30.00,SSW,202,0.0,0.0,91,0.00,,---,0.00,VWS V14.01,2013-04-11 06:30:00,
2013-04-11 02:35:00,59.5,56.8,29.99,SSW,202,0.0,0.0,91,0.00,,---,0.00,VWS V14.01,2013-04-11 06:35:00,
2013-04-11 02:41:00,59.5,56.8,29.99,WSW,248,0.0,0.0,91,0.00,,---,0.00,VWS V14.01,2013-04-11 06:41:00,
2013-04-11 02:46:00,59.3,56.9,29.99,WNW,292,0.0,0.0,92,0.00,,---,0.00,VWS V14.01,2013-04-11 06:46:00,
2013-04-11 02:51:00,59.2,56.8,29.99,SSW,202,0.0,0.0,92,0.00,,---,0.00,VWS V14.01,2013-04-11 06:51:00,
2013-04-11 02:56:00,59.2,56.8,29.99,SSW,202,0.0,0.0,92,0.00,,---,0.00,VWS V14.01,2013-04-11 06:56:00,
2013-04-11 03:01:00,59.2,56.8,29.99,SSW,202,0.0,0.0,92,0.00,,---,0.00,VWS V14.01,2013-04-11 07:01:00,
2013-04-11 03:06:00,59.2,57.1,29.99,WSW,248,0.0,0.0,93,0.00,,---,0.00,VWS V14.01,2013-04-11 07:06:00,
2013-04-11 03:11:00,59.2,57.1,29.99,SSW,202,0.0,0.0,93,0.00,,---,0.00,VWS V14.01,2013-04-11 07:11:00,
2013-04-11 03:16:00,59.3,57.2,29.98,WSW,248,0.0,0.0,93,0.00,,---,0.00,VWS V14.01,2013-04-11 07:16:00,
2013-04-11 03:21:00,59.3,57.2,29.98,SW,225,0.6,0.9,93,0.00,,---,0.00,VWS V14.01,2013-04-11 07:21:00,
2013-04-11 03:26:00,59.2,57.1,29.98,SW,225,0.0,0.0,93,0.00,,---,0.00,VWS V14.01,2013-04-11 07:26:00,
2013-04-11 03:31:00,59.2,57.4,29.98,WSW,248,1.8,2.6,94,0.00,,---,0.00,VWS V14.01,2013-04-11 07:31:00,
2013-04-11 03:36:00,59.3,57.8,29.98,SSW,202,0.6,5.9,95,0.00,,---,0.00,VWS V14.01,2013-04-11 07:36:00,
2013-04-11 03:41:00,59.3,57.5,29.97,SSW,202,0.0,0.0,94,0.00,,---,0.00,VWS V14.01,2013-04-11 07:41:00,
2013-04-11 03:46:00,59.2,57.4,29.97,ENE,68,1.1,1.6,94,0.00,,---,0.00,VWS V14.01,2013-04-11 07:46:00,
2013-04-11 03:51:00,59.3,57.5,29.97,SSW,202,0.6,2.6,94,0.00,,---,0.00,VWS V14.01,2013-04-11 07:51:00,
2013-04-11 03:56:00,59.5,57.7,29.97,SSW,202,0.0,0.0,94,0.00,,---,0.00,VWS V14.01,2013-04-11 07:56:00,
2013-04-11 04:01:00,59.7,57.9,29.98,WSW,248,0.6,1.6,94,0.00,,---,0.00,VWS V14.01,2013-04-11 08:01:00,
2013-04-11 04:06:00,59.9,58.1,29.98,SE,135,0.6,0.9,94,0.00,,---,0.00,VWS V14.01,2013-04-11 08:06:00,
2013-04-11 04:11:00,60.1,58.6,29.98,WSW,248,0.0,0.5,95,0.00,,---,0.00,VWS V14.01,2013-04-11 08:11:00,
2013-04-11 04:16:00,60.1,58.6,29.97,SSW,202,1.8,2.6,95,0.00,,---,0.00,VWS V14.01,2013-04-11 08:16:00,
2013-04-11 04:21:00,60.1,58.6,29.98,WNW,292,0.0,0.0,95,0.00,,---,0.00,VWS V14.01,2013-04-11 08:21:00,
2013-04-11 04:26:00,60.1,58.6,29.98,NNW,338,1.8,2.6,95,0.00,,---,0.00,VWS V14.01,2013-04-11 08:26:00,
2013-04-11 04:32:00,60.1,58.6,29.98,SW,225,0.3,0.5,95,0.00,,---,0.00,VWS V14.01,2013-04-11 08:32:00,
2013-04-11 04:37:00,59.9,58.1,29.98,SW,225,0.3,0.5,94,0.00,,---,0.00,VWS V14.01,2013-04-11 08:37:00,
2013-04-11 04:42:00,59.7,57.9,29.98,SW,225,0.0,0.0,94,0.00,,---,0.00,VWS V14.01,2013-04-11 08:42:00,
2013-04-11 04:47:00,59.7,57.9,29.98,SW,225,0.6,0.9,94,0.00,,---,0.00,VWS V14.01,2013-04-11 08:47:00,
2013-04-11 04:52:00,59.7,57.9,29.99,South,180,0.0,0.0,94,0.00,,---,0.00,VWS V14.01,2013-04-11 08:52:00,
2013-04-11 04:57:00,59.7,57.9,29.99,South,180,0.0,0.0,94,0.00,,---,0.00,VWS V14.01,2013-04-11 08:57:00,
2013-04-11 05:02:00,59.7,58.2,29.98,SSW,202,0.0,0.0,95,0.00,,---,0.00,VWS V14.01,2013-04-11 09:02:00,
2013-04-11 05:07:00,59.9,58.4,29.98,SSE,158,2.9,4.2,95,0.00,,---,0.00,VWS V14.01,2013-04-11 09:07:00,
2013-04-11 05:12:00,59.9,58.4,29.99,NNW,338,0.3,0.5,95,0.00,,---,0.00,VWS V14.01,2013-04-11 09:12:00,
2013-04-11 05:17:00,59.9,58.7,29.99,WSW,248,0.0,0.9,96,0.00,,---,0.00,VWS V14.01,2013-04-11 09:17:00,
2013-04-11 05:22:00,59.9,58.7,29.99,West,270,0.0,2.1,96,0.00,,---,0.00,VWS V14.01,2013-04-11 09:22:00,
2013-04-11 05:27:00,60.1,59.2,29.99,WSW,248,3.5,5.2,97,0.00,,---,0.00,VWS V14.01,2013-04-11 09:27:00,
2013-04-11 05:32:00,60.2,59.0,29.98,WNW,292,0.0,0.0,96,0.00,,---,0.00,VWS V14.01,2013-04-11 09:32:00,
2013-04-11 05:37:00,59.9,58.7,29.98,SW,225,2.6,3.8,96,0.00,,---,0.00,VWS V14.01,2013-04-11 09:37:00,
2013-04-11 05:42:00,59.9,58.7,29.98,WSW,248,0.0,0.5,96,0.00,,---,0.00,VWS V14.01,2013-04-11 09:42:00,
2013-04-11 05:47:00,59.9,58.7,29.98,WSW,248,0.0,0.0,96,0.00,,---,0.00,VWS V14.01,2013-04-11 09:47:00,
2013-04-11 05:52:00,59.7,58.5,29.98,WSW,248,0.0,0.0,96,0.00,,---,0.00,VWS V14.01,2013-04-11 09:52:00,
2013-04-11 05:57:00,59.7,58.5,29.98,WSW,248,0.0,0.0,96,0.00,,---,0.00,VWS V14.01,2013-04-11 09:57:00,
2013-04-11 06:02:00,59.5,58.0,29.98,WSW,248,0.0,0.0,95,0.00,,---,0.00,VWS V14.01,2013-04-11 10:02:00,
2013-04-11 06:07:00,59.5,58.0,29.99,SW,225,0.6,0.9,95,0.00,,---,0.00,VWS V14.01,2013-04-11 10:07:00,
2013-04-11 06:12:00,59.5,58.0,29.99,SW,225,0.0,0.0,95,0.00,,---,0.00,VWS V14.01,2013-04-11 10:12:00,
2013-04-11 06:17:00,59.5,58.0,29.99,SW,225,0.0,0.0,95,0.00,,---,0.00,VWS V14.01,2013-04-11 10:17:00,
2013-04-11 06:22:00,59.5,58.3,29.99,SSW,202,0.3,0.5,96,0.00,,---,0.00,VWS V14.01,2013-04-11 10:22:00,
2013-04-11 06:27:00,59.5,58.3,29.99,SSW,202,0.0,0.0,96,0.00,,---,0.00,VWS V14.01,2013-04-11 10:27:00,
2013-04-11 06:32:00,59.5,58.0,29.99,SSW,202,0.0,0.0,95,0.00,,---,0.00,VWS V14.01,2013-04-11 10:32:00,
2013-04-11 06:37:00,59.3,57.8,29.99,SSW,202,0.0,0.0,95,0.00,,---,0.00,VWS V14.01,2013-04-11 10:37:00,
2013-04-11 06:42:00,59.2,57.7,29.99,SSW,202,0.0,0.0,95,0.00,,---,0.00,VWS V14.01,2013-04-11 10:42:00,
2013-04-11 06:47:00,59.2,58.0,29.99,SSW,202,0.0,0.0,96,0.00,,---,0.00,VWS V14.01,2013-04-11 10:47:00,
2013-04-11 06:52:00,59.0,57.8,29.99,SW,225,0.6,0.9,96,0.00,,---,0.00,VWS V14.01,2013-04-11 10:52:00,
2013-04-11 06:57:00,58.8,57.6,29.99,SW,225,0.0,0.9,96,0.00,,---,0.00,VWS V14.01,2013-04-11 10:57:00,
2013-04-11 07:02:00,58.8,57.6,29.99,SW,225,0.0,0.0,96,0.00,,---,0.00,VWS V14.01,2013-04-11 11:02:00,
2013-04-11 07:07:00,58.8,57.6,29.99,South,180,0.0,0.0,96,0.00,,---,0.00,VWS V14.01,2013-04-11 11:07:00,
2013-04-11 07:13:00,59.0,57.8,29.99,South,180,0.0,0.0,96,0.00,,---,0.00,VWS V14.01,2013-04-11 11:13:00,
2013-04-11 07:18:00,59.0,57.8,29.99,South,180,0.0,0.0,96,0.00,,---,0.00,VWS V14.01,2013-04-11 11:18:00,
2013-04-11 07:23:00,59.2,58.0,29.99,South,180,0.0,0.0,96,0.00,,---,0.00,VWS V14.01,2013-04-11 11:23:00,
2013-04-11 07:28:00,59.2,58.0,30.00,South,180,0.0,0.0,96,0.00,,---,0.00,VWS V14.01,2013-04-11 11:28:00,
2013-04-11 07:33:00,59.5,58.3,30.00,SSW,202,0.0,0.0,96,0.00,,---,0.00,VWS V14.01,2013-04-11 11:33:00,
2013-04-11 07:38:00,59.7,58.5,30.01,SW,225,0.0,0.0,96,0.00,,---,0.00,VWS V14.01,2013-04-11 11:38:00,
2013-04-11 07:43:00,59.9,58.7,30.00,SW,225,0.0,0.0,96,0.00,,---,0.00,VWS V14.01,2013-04-11 11:43:00,
2013-04-11 07:48:00,60.4,59.2,30.00,SW,225,0.0,0.0,96,0.00,,---,0.00,VWS V14.01,2013-04-11 11:48:00,
2013-04-11 07:53:00,60.8,59.6,30.01,SSW,202,0.0,0.9,96,0.00,,---,0.00,VWS V14.01,2013-04-11 11:53:00,
2013-04-11 07:58:00,61.5,60.3,30.01,WNW,292,0.0,0.5,96,0.00,,---,0.00,VWS V14.01,2013-04-11 11:58:00,
2013-04-11 08:03:00,62.0,61.1,30.01,SSE,158,0.0,0.0,97,0.00,,---,0.00,VWS V14.01,2013-04-11 12:03:00,
2013-04-11 08:08:00,62.8,61.5,30.01,WNW,292,1.1,2.6,96,0.00,,---,0.00,VWS V14.01,2013-04-11 12:08:00,
2013-04-11 08:13:00,63.3,62.3,30.01,West,270,0.0,0.9,97,0.00,,---,0.00,VWS V14.01,2013-04-11 12:13:00,
2013-04-11 08:18:00,63.8,62.8,30.01,SE,135,0.6,0.9,97,0.00,,---,0.00,VWS V14.01,2013-04-11 12:18:00,
2013-04-11 08:23:00,64.3,63.4,30.01,West,270,1.1,4.2,97,0.00,,---,0.00,VWS V14.01,2013-04-11 12:23:00,
2013-04-11 08:28:00,64.6,63.6,30.01,West,270,1.8,3.1,97,0.00,,---,0.00,VWS V14.01,2013-04-11 12:28:00,
2013-04-11 08:33:00,64.8,63.9,30.01,SW,225,1.8,4.2,97,0.00,,---,0.00,VWS V14.01,2013-04-11 12:33:00,
2013-04-11 08:38:00,65.2,64.0,30.02,NNW,338,0.6,0.9,96,0.00,,---,0.00,VWS V14.01,2013-04-11 12:38:00,
2013-04-11 08:43:00,65.5,64.6,30.02,West,270,5.4,8.0,97,0.00,,---,0.00,VWS V14.01,2013-04-11 12:43:00,
2013-04-11 08:48:00,65.9,65.0,30.02,NNW,338,1.4,2.1,97,0.00,,---,0.00,VWS V14.01,2013-04-11 12:48:00,
2013-04-11 08:53:00,66.1,64.6,30.02,SW,225,0.0,1.6,95,0.00,,---,0.00,VWS V14.01,2013-04-11 12:53:00,
2013-04-11 08:58:00,66.6,65.1,30.02,WSW,248,0.0,2.6,95,0.00,,---,0.00,VWS V14.01,2013-04-11 12:58:00,
2013-04-11 09:03:00,67.2,65.7,30.02,WSW,248,0.6,5.2,95,0.00,,---,0.00,VWS V14.01,2013-04-11 13:03:00,
2013-04-11 09:08:00,67.9,65.7,30.02,WSW,248,2.9,5.9,93,0.00,,---,0.00,VWS V14.01,2013-04-11 13:08:00,
2013-04-11 09:13:00,68.2,66.0,30.02,WSW,248,2.1,9.4,93,0.00,,---,0.00,VWS V14.01,2013-04-11 13:13:00,
2013-04-11 09:18:00,68.8,66.0,30.01,South,180,2.9,6.3,91,0.00,,---,0.00,VWS V14.01,2013-04-11 13:18:00,
2013-04-11 09:23:00,69.3,66.4,30.01,West,270,1.8,4.2,91,0.00,,---,0.00,VWS V14.01,2013-04-11 13:23:00,
2013-04-11 09:28:00,69.9,67.0,30.01,WNW,292,5.4,8.0,91,0.00,,---,0.00,VWS V14.01,2013-04-11 13:28:00,
2013-04-11 09:33:00,70.2,66.7,30.01,NW,315,6.9,10.1,89,0.00,,---,0.00,VWS V14.01,2013-04-11 13:33:00,
2013-04-11 09:38:00,70.8,66.9,30.01,SW,225,2.6,8.5,88,0.00,,---,0.00,VWS V14.01,2013-04-11 13:38:00,
2013-04-11 09:43:00,71.1,66.9,30.01,NNW,338,0.6,11.0,87,0.00,,---,0.00,VWS V14.01,2013-04-11 13:43:00,
2013-04-11 09:48:00,71.5,67.2,30.01,WSW,248,5.4,8.0,87,0.00,,---,0.00,VWS V14.01,2013-04-11 13:48:00,
2013-04-11 09:53:00,71.7,66.8,30.02,West,270,1.8,5.9,84,0.00,,---,0.00,VWS V14.01,2013-04-11 13:53:00,
2013-04-11 09:58:00,71.7,66.8,30.02,WSW,248,1.8,9.4,84,0.00,,---,0.00,VWS V14.01,2013-04-11 13:58:00,
2013-04-11 10:03:00,71.7,66.4,30.01,WSW,248,2.9,5.9,83,0.00,,---,0.00,VWS V14.01,2013-04-11 14:03:00,
2013-04-11 10:08:00,71.8,66.8,30.01,West,270,2.6,9.4,84,0.00,,---,0.00,VWS V14.01,2013-04-11 14:08:00,
2013-04-11 10:13:00,72.4,67.8,30.01,NNE,22,3.2,4.7,85,0.00,,---,0.00,VWS V14.01,2013-04-11 14:13:00,
2013-04-11 10:18:00,73.5,68.1,30.01,West,270,4.0,8.9,83,0.00,,---,0.00,VWS V14.01,2013-04-11 14:18:00,
2013-04-11 10:23:00,73.8,67.3,30.01,North,0,5.4,8.0,80,0.00,,---,0.00,VWS V14.01,2013-04-11 14:23:00,
2013-04-11 10:28:00,74.3,66.8,30.01,West,270,4.6,9.4,77,0.00,,---,0.00,VWS V14.01,2013-04-11 14:28:00,
2013-04-11 10:33:00,74.2,66.2,30.01,WSW,248,4.0,6.8,76,0.00,,---,0.00,VWS V14.01,2013-04-11 14:33:00,
2013-04-11 10:38:00,74.2,66.6,30.01,SSW,202,3.5,8.5,77,0.00,,---,0.00,VWS V14.01,2013-04-11 14:38:00,
2013-04-11 10:43:00,74.8,66.1,30.01,South,180,1.1,9.4,74,0.00,,---,0.00,VWS V14.01,2013-04-11 14:43:00,
2013-04-11 10:48:00,75.5,66.3,30.00,SW,225,8.2,12.0,73,0.00,,---,0.00,VWS V14.01,2013-04-11 14:48:00,
2013-04-11 10:53:00,75.5,64.7,30.01,SE,135,5.8,9.4,69,0.00,,---,0.00,VWS V14.01,2013-04-11 14:53:00,
2013-04-11 10:58:00,75.5,64.7,30.01,WSW,248,6.4,9.4,69,0.00,,---,0.00,VWS V14.01,2013-04-11 14:58:00,
2013-04-11 11:04:00,75.7,64.9,30.01,SW,225,2.9,12.7,69,0.00,,---,0.00,VWS V14.01,2013-04-11 15:04:00,
2013-04-11 11:09:00,75.5,64.7,30.01,SSW,202,4.0,12.7,69,0.00,,---,0.00,VWS V14.01,2013-04-11 15:09:00,
2013-04-11 11:14:00,75.3,64.5,30.00,WSW,248,1.1,8.5,69,0.00,,---,0.00,VWS V14.01,2013-04-11 15:14:00,
2013-04-11 11:19:00,75.5,65.1,30.00,WNW,292,1.4,8.0,70,0.00,,---,0.00,VWS V14.01,2013-04-11 15:19:00,
2013-04-11 11:24:00,75.9,65.1,29.99,SW,225,1.1,12.7,69,0.00,,---,0.00,VWS V14.01,2013-04-11 15:24:00,
2013-04-11 11:29:00,76.2,65.8,29.99,WNW,292,9.0,13.2,70,0.00,,---,0.00,VWS V14.01,2013-04-11 15:29:00,
2013-04-11 11:34:00,76.6,65.7,29.99,West,270,4.0,13.2,69,0.00,,---,0.00,VWS V14.01,2013-04-11 15:34:00,
2013-04-11 11:39:00,76.4,65.5,29.99,WSW,248,2.1,8.9,69,0.00,,---,0.00,VWS V14.01,2013-04-11 15:39:00,
2013-04-11 11:44:00,76.6,64.8,29.98,SW,225,3.2,8.5,67,0.00,,---,0.00,VWS V14.01,2013-04-11 15:44:00,
2013-04-11 11:49:00,77.1,66.2,29.98,West,270,5.4,8.0,69,0.00,,---,0.00,VWS V14.01,2013-04-11 15:49:00,
2013-04-11 11:54:00,77.7,65.4,29.98,WSW,248,3.2,4.7,66,0.00,,---,0.00,VWS V14.01,2013-04-11 15:54:00,
2013-04-11 11:59:00,78.0,66.2,29.98,West,270,2.1,4.7,67,0.00,,---,0.00,VWS V14.01,2013-04-11 15:59:00,
2013-04-11 12:04:00,78.8,66.0,29.98,WNW,292,2.9,8.0,65,0.00,,---,0.00,VWS V14.01,2013-04-11 16:04:00,
2013-04-11 12:09:00,79.5,64.3,29.98,West,270,3.2,8.9,60,0.00,,---,0.00,VWS V14.01,2013-04-11 16:09:00,
2013-04-11 12:14:00,80.0,64.8,29.97,SSE,158,6.9,11.0,60,0.00,,---,0.00,VWS V14.01,2013-04-11 16:14:00,
2013-04-11 12:19:00,80.6,65.3,29.97,SSE,158,6.9,10.1,60,0.00,,---,0.00,VWS V14.01,2013-04-11 16:19:00,
2013-04-11 12:24:00,80.2,64.9,29.97,SSW,202,5.4,12.7,60,0.00,,---,0.00,VWS V14.01,2013-04-11 16:24:00,
2013-04-11 12:29:00,79.8,65.1,29.97,West,270,6.9,10.1,61,0.00,,---,0.00,VWS V14.01,2013-04-11 16:29:00,
2013-04-11 12:34:00,79.3,65.6,29.97,WSW,248,1.8,10.1,63,0.00,,---,0.00,VWS V14.01,2013-04-11 16:34:00,
2013-04-11 12:39:00,78.8,65.6,29.97,WSW,248,1.8,11.0,64,0.00,,---,0.00,VWS V14.01,2013-04-11 16:39:00,
2013-04-11 12:44:00,78.8,65.6,29.96,NNW,338,2.9,8.5,64,0.00,,---,0.00,VWS V14.01,2013-04-11 16:44:00,
2013-04-11 12:49:00,78.2,65.0,29.96,North,0,1.8,8.5,64,0.00,,---,0.00,VWS V14.01,2013-04-11 16:49:00,
2013-04-11 12:54:00,78.6,65.8,29.96,NW,315,3.2,6.3,65,0.00,,---,0.00,VWS V14.01,2013-04-11 16:54:00,
2013-04-11 12:59:00,79.3,66.9,29.96,SW,225,2.1,3.8,66,0.00,,---,0.00,VWS V14.01,2013-04-11 16:59:00,
2013-04-11 13:04:00,79.3,65.6,29.96,SW,225,2.6,3.8,63,0.00,,---,0.00,VWS V14.01,2013-04-11 17:04:00,
2013-04-11 13:09:00,80.2,66.4,29.95,SSW,202,5.4,8.0,63,0.00,,---,0.00,VWS V14.01,2013-04-11 17:09:00,
2013-04-11 13:14:00,81.5,64.6,29.94,South,180,8.6,12.7,57,0.00,,---,0.00,VWS V14.01,2013-04-11 17:14:00,
2013-04-11 13:19:00,80.6,64.3,29.94,WSW,248,7.5,21.6,58,0.00,,---,0.00,VWS V14.01,2013-04-11 17:19:00,
2013-04-11 13:24:00,79.8,64.6,29.94,WSW,248,1.4,5.9,60,0.00,,---,0.00,VWS V14.01,2013-04-11 17:24:00,
2013-04-11 13:29:00,80.0,66.2,29.94,West,270,2.6,5.9,63,0.00,,---,0.00,VWS V14.01,2013-04-11 17:29:00,
2013-04-11 13:34:00,80.6,64.8,29.93,WSW,248,4.6,8.5,59,0.00,,---,0.00,VWS V14.01,2013-04-11 17:34:00,
2013-04-11 13:39:00,81.3,66.0,29.93,West,270,2.1,7.3,60,0.00,,---,0.00,VWS V14.01,2013-04-11 17:39:00,
2013-04-11 13:44:00,80.9,65.6,29.93,West,270,1.8,8.0,60,0.00,,---,0.00,VWS V14.01,2013-04-11 17:44:00,
2013-04-11 13:49:00,81.1,66.3,29.93,SW,225,1.8,4.7,61,0.00,,---,0.00,VWS V14.01,2013-04-11 17:49:00,
2013-04-11 13:54:00,81.6,67.7,29.93,NNW,338,5.0,7.3,63,0.00,,---,0.00,VWS V14.01,2013-04-11 17:54:00,
2013-04-11 13:59:00,82.2,66.8,29.93,WSW,248,6.1,8.9,60,0.00,,---,0.00,VWS V14.01,2013-04-11 17:59:00,
2013-04-11 14:05:00,81.6,66.2,29.93,SW,225,2.9,8.9,60,0.00,,---,0.00,VWS V14.01,2013-04-11 18:05:00,
2013-04-11 14:10:00,82.4,66.5,29.93,WNW,292,6.4,9.4,59,0.00,,---,0.00,VWS V14.01,2013-04-11 18:10:00,
2013-04-11 14:15:00,82.7,68.2,29.93,NW,315,3.2,5.9,62,0.00,,---,0.00,VWS V14.01,2013-04-11 18:15:00,
2013-04-11 14:20:00,82.4,66.0,29.92,SSW,202,11.8,17.4,58,0.00,,---,0.00,VWS V14.01,2013-04-11 18:20:00,
2013-04-11 14:25:00,81.3,65.5,29.92,NNW,338,10.4,15.3,59,0.00,,---,0.00,VWS V14.01,2013-04-11 18:25:00,
2013-04-11 14:30:00,81.6,66.7,29.91,WSW,248,1.8,16.2,61,0.00,,---,0.00,VWS V14.01,2013-04-11 18:30:00,
2013-04-11 14:35:00,82.2,65.3,29.91,WNW,292,5.8,8.5,57,0.00,,---,0.00,VWS V14.01,2013-04-11 18:35:00,
2013-04-11 14:40:00,82.4,65.4,29.91,WSW,248,7.2,12.0,57,0.00,,---,0.00,VWS V14.01,2013-04-11 18:40:00,
2013-04-11 14:45:00,81.5,65.1,29.91,SE,135,3.5,14.1,58,0.00,,---,0.00,VWS V14.01,2013-04-11 18:45:00,
2013-04-11 14:50:00,81.6,66.2,29.91,West,270,3.5,14.1,60,0.00,,---,0.00,VWS V14.01,2013-04-11 18:50:00,
2013-04-11 14:55:00,81.8,66.4,29.90,West,270,1.4,5.2,60,0.00,,---,0.00,VWS V14.01,2013-04-11 18:55:00,
2013-04-11 15:00:00,81.8,65.4,29.90,SW,225,0.6,8.9,58,0.00,,---,0.00,VWS V14.01,2013-04-11 19:00:00,
2013-04-11 15:05:00,82.0,66.6,29.90,SW,225,2.9,6.8,60,0.00,,---,0.00,VWS V14.01,2013-04-11 19:05:00,
2013-04-11 15:10:00,82.9,66.9,29.90,SSW,202,2.1,10.6,59,0.00,,---,0.00,VWS V14.01,2013-04-11 19:10:00,
2013-04-11 15:15:00,83.3,67.3,29.89,SSW,202,9.6,14.1,59,0.00,,---,0.00,VWS V14.01,2013-04-11 19:15:00,
2013-04-11 15:20:00,82.5,66.1,29.89,WSW,248,9.0,14.1,58,0.00,,---,0.00,VWS V14.01,2013-04-11 19:20:00,
2013-04-11 15:25:00,81.6,65.2,29.89,WSW,248,13.9,20.4,58,0.00,,---,0.00,VWS V14.01,2013-04-11 19:25:00,
2013-04-11 15:30:00,81.1,65.8,29.89,ESE,112,5.4,20.4,60,0.00,,---,0.00,VWS V14.01,2013-04-11 19:30:00,
2013-04-11 15:35:00,80.9,66.1,29.89,WSW,248,4.6,8.0,61,0.00,,---,0.00,VWS V14.01,2013-04-11 19:35:00,
2013-04-11 15:40:00,80.9,66.1,29.89,WSW,248,9.3,13.6,61,0.00,,---,0.00,VWS V14.01,2013-04-11 19:40:00,
2013-04-11 15:45:00,81.1,65.8,29.88,SSW,202,9.3,13.6,60,0.00,,---,0.00,VWS V14.01,2013-04-11 19:45:00,
2013-04-11 15:50:00,81.1,65.8,29.88,West,270,6.1,13.6,60,0.00,,---,0.00,VWS V14.01,2013-04-11 19:50:00,
2013-04-11 15:55:00,80.9,66.6,29.88,SSE,158,5.8,8.9,62,0.00,,---,0.00,VWS V14.01,2013-04-11 19:55:00,
2013-04-11 16:00:00,81.3,66.9,29.88,WSW,248,8.6,12.7,62,0.00,,---,0.00,VWS V14.01,2013-04-11 20:00:00,
2013-04-11 16:05:00,81.5,67.1,29.88,WSW,248,2.9,12.7,62,0.00,,---,0.00,VWS V14.01,2013-04-11 20:05:00,
2013-04-11 16:10:00,81.1,67.2,29.87,East,90,2.9,7.3,63,0.00,,---,0.00,VWS V14.01,2013-04-11 20:10:00,
2013-04-11 16:15:00,80.9,67.0,29.87,SSE,158,2.6,10.1,63,0.00,,---,0.00,VWS V14.01,2013-04-11 20:15:00,
2013-04-11 16:20:00,80.7,66.4,29.87,North,0,6.4,9.4,62,0.00,,---,0.00,VWS V14.01,2013-04-11 20:20:00,
2013-04-11 16:25:00,79.8,66.0,29.87,SW,225,5.4,15.7,63,0.00,,---,0.00,VWS V14.01,2013-04-11 20:25:00,
2013-04-11 16:30:00,79.5,66.7,29.87,North,0,6.4,12.7,65,0.00,,---,0.00,VWS V14.01,2013-04-11 20:30:00,
2013-04-11 16:35:00,79.5,66.2,29.87,WSW,248,11.8,17.4,64,0.00,,---,0.00,VWS V14.01,2013-04-11 20:35:00,
2013-04-11 16:40:00,79.3,66.5,29.87,WSW,248,2.9,17.4,65,0.00,,---,0.00,VWS V14.01,2013-04-11 20:40:00,
2013-04-11 16:45:00,79.5,66.2,29.87,SE,135,2.6,3.8,64,0.00,,---,0.00,VWS V14.01,2013-04-11 20:45:00,
2013-04-11 16:50:00,79.3,66.0,29.87,WSW,248,7.2,10.6,64,0.00,,---,0.00,VWS V14.01,2013-04-11 20:50:00,
2013-04-11 16:55:00,79.3,66.0,29.87,ESE,112,7.8,11.5,64,0.00,,---,0.00,VWS V14.01,2013-04-11 20:55:00,
2013-04-11 17:00:00,79.1,66.3,29.86,WSW,248,4.3,8.5,65,0.00,,---,0.00,VWS V14.01,2013-04-11 21:00:00,
2013-04-11 17:05:00,78.9,66.1,29.86,West,270,7.8,16.2,65,0.00,,---,0.00,VWS V14.01,2013-04-11 21:05:00,
2013-04-11 17:11:00,78.8,66.5,29.86,SSW,202,1.8,2.6,66,0.00,,---,0.00,VWS V14.01,2013-04-11 21:11:00,
2013-04-11 17:16:00,79.5,67.6,29.86,SW,225,6.4,9.4,67,0.00,,---,0.00,VWS V14.01,2013-04-11 21:16:00,
2013-04-11 17:21:00,80.0,66.7,29.86,SSW,202,17.9,26.3,64,0.00,,---,0.00,VWS V14.01,2013-04-11 21:21:00,
2013-04-11 17:26:00,79.7,66.8,29.86,SE,135,4.0,5.9,65,0.00,,---,0.00,VWS V14.01,2013-04-11 21:26:00,
2013-04-11 17:31:00,79.3,66.9,29.86,East,90,3.5,5.2,66,0.00,,---,0.00,VWS V14.01,2013-04-11 21:31:00,
2013-04-11 17:36:00,78.8,66.5,29.86,SW,225,6.4,9.4,66,0.00,,---,0.00,VWS V14.01,2013-04-11 21:36:00,
2013-04-11 17:41:00,78.2,66.8,29.86,ESE,112,5.8,8.5,68,0.00,,---,0.00,VWS V14.01,2013-04-11 21:41:00,
2013-04-11 17:46:00,78.2,66.8,29.86,WNW,292,4.6,6.8,68,0.00,,---,0.00,VWS V14.01,2013-04-11 21:46:00,
2013-04-11 17:51:00,78.0,66.6,29.86,WSW,248,2.1,4.7,68,0.00,,---,0.00,VWS V14.01,2013-04-11 21:51:00,
2013-04-11 17:56:00,77.7,66.3,29.86,SSW,202,8.6,12.7,68,0.00,,---,0.00,VWS V14.01,2013-04-11 21:56:00,
2013-04-11 18:01:00,77.3,66.4,29.86,West,270,4.6,6.8,69,0.00,,---,0.00,VWS V14.01,2013-04-11 22:01:00,
2013-04-11 18:06:00,76.8,65.9,29.86,NW,315,2.1,6.3,69,0.00,,---,0.00,VWS V14.01,2013-04-11 22:06:00,
2013-04-11 18:12:00,76.8,66.3,29.86,SSE,158,3.2,4.7,70,0.00,,---,0.00,VWS V14.01,2013-04-11 22:12:00,
2013-04-11 18:17:00,76.4,65.9,29.86,WSW,248,5.4,8.0,70,0.00,,---,0.00,VWS V14.01,2013-04-11 22:17:00,
2013-04-11 18:22:00,76.2,66.2,29.86,South,180,4.0,5.9,71,0.00,,---,0.00,VWS V14.01,2013-04-11 22:22:00,
2013-04-11 18:27:00,76.2,66.2,29.87,North,0,4.0,5.9,71,0.00,,---,0.00,VWS V14.01,2013-04-11 22:27:00,
2013-04-11 18:32:00,75.9,66.3,29.87,West,270,2.6,4.2,72,0.00,,---,0.00,VWS V14.01,2013-04-11 22:32:00,
2013-04-11 18:37:00,75.7,66.5,29.87,SSE,158,2.1,7.3,73,0.00,,---,0.00,VWS V14.01,2013-04-11 22:37:00,
2013-04-11 18:42:00,75.5,66.3,29.87,WSW,248,3.2,4.7,73,0.00,,---,0.00,VWS V14.01,2013-04-11 22:42:00,
2013-04-11 18:47:00,75.2,66.4,29.86,WNW,292,2.9,11.0,74,0.00,,---,0.00,VWS V14.01,2013-04-11 22:47:00,
2013-04-11 18:52:00,74.8,66.5,29.86,SW,225,2.6,11.5,75,0.00,,---,0.00,VWS V14.01,2013-04-11 22:52:00,
2013-04-11 18:57:00,74.7,66.3,29.86,SSW,202,1.8,13.6,75,0.00,,---,0.00,VWS V14.01,2013-04-11 22:57:00,
2013-04-11 19:02:00,74.3,66.8,29.86,NNE,22,2.6,8.9,77,0.00,,---,0.00,VWS V14.01,2013-04-11 23:02:00,
2013-04-11 19:07:00,73.9,66.4,29.86,South,180,5.0,8.9,77,0.00,,---,0.00,VWS V14.01,2013-04-11 23:07:00,
2013-04-11 19:12:00,73.8,66.2,29.86,WSW,248,1.8,8.0,77,0.00,,---,0.00,VWS V14.01,2013-04-11 23:12:00,
2013-04-11 19:17:00,73.6,66.0,29.86,West,270,1.8,2.6,77,0.00,,---,0.00,VWS V14.01,2013-04-11 23:17:00,
2013-04-11 19:22:00,73.3,66.5,29.86,NNW,338,2.9,11.5,79,0.00,,---,0.00,VWS V14.01,2013-04-11 23:22:00,
2013-04-11 19:28:00,72.9,66.5,29.86,WSW,248,5.0,7.3,80,0.00,,---,0.00,VWS V14.01,2013-04-11 23:28:00,
2013-04-11 19:33:00,72.7,66.3,29.87,WSW,248,2.9,4.7,80,0.00,,---,0.00,VWS V14.01,2013-04-11 23:33:00,
2013-04-11 19:38:00,72.4,66.0,29.87,NW,315,2.9,4.2,80,0.00,,---,0.00,VWS V14.01,2013-04-11 23:38:00,
2013-04-11 19:43:00,72.0,66.0,29.87,WSW,248,2.9,4.2,81,0.00,,---,0.00,VWS V14.01,2013-04-11 23:43:00,
2013-04-11 19:48:00,71.8,66.1,29.87,WSW,248,2.9,4.2,82,0.00,,---,0.00,VWS V14.01,2013-04-11 23:48:00,
2013-04-11 19:53:00,71.7,66.0,29.87,West,270,2.6,6.3,82,0.00,,---,0.00,VWS V14.01,2013-04-11 23:53:00,
2013-04-11 19:58:00,71.7,66.0,29.87,WSW,248,2.9,8.9,82,0.00,,---,0.00,VWS V14.01,2013-04-11 23:58:00,
2013-04-11 20:03:00,71.7,66.0,29.88,ESE,112,3.5,5.2,82,0.00,,---,0.00,VWS V14.01,2013-04-12 00:03:00,
2013-04-11 20:08:00,71.7,66.0,29.87,ESE,112,2.9,8.9,82,0.00,,---,0.00,VWS V14.01,2013-04-12 00:08:00,
2013-04-11 20:13:00,71.5,65.8,29.87,WSW,248,1.8,2.6,82,0.00,,---,0.00,VWS V14.01,2013-04-12 00:13:00,
2013-04-11 20:18:00,71.3,65.7,29.87,WNW,292,0.3,2.6,82,0.00,,---,0.00,VWS V14.01,2013-04-12 00:18:00,
2013-04-11 20:23:00,71.1,65.4,29.87,ENE,68,2.6,8.5,82,0.00,,---,0.00,VWS V14.01,2013-04-12 00:23:00,
2013-04-11 20:28:00,70.9,65.3,29.87,WNW,292,1.4,10.6,82,0.00,,---,0.00,VWS V14.01,2013-04-12 00:28:00,
2013-04-11 20:33:00,70.9,66.0,29.87,South,180,2.6,11.0,84,0.00,,---,0.00,VWS V14.01,2013-04-12 00:33:00,
2013-04-11 20:38:00,70.8,65.5,29.87,East,90,2.1,6.3,83,0.00,,---,0.00,VWS V14.01,2013-04-12 00:38:00,
2013-04-11 20:43:00,70.6,65.7,29.87,WSW,248,0.6,2.6,84,0.00,,---,0.00,VWS V14.01,2013-04-12 00:43:00,
2013-04-11 20:48:00,70.6,65.7,29.87,SSW,202,0.6,11.5,84,0.00,,---,0.00,VWS V14.01,2013-04-12 00:48:00,
2013-04-11 20:53:00,70.4,65.5,29.88,WNW,292,2.9,4.2,84,0.00,,---,0.00,VWS V14.01,2013-04-12 00:53:00,
2013-04-11 20:58:00,70.2,65.6,29.88,SSW,202,2.9,9.4,85,0.00,,---,0.00,VWS V14.01,2013-04-12 00:58:00,
2013-04-11 21:03:00,70.2,66.0,29.88,SW,225,9.0,13.2,87,0.00,,---,0.00,VWS V14.01,2013-04-12 01:03:00,
2013-04-11 21:08:00,70.0,65.4,29.88,SW,225,0.0,7.3,85,0.00,,---,0.00,VWS V14.01,2013-04-12 01:08:00,
2013-04-11 21:13:00,69.9,65.3,29.88,ENE,68,1.4,8.9,85,0.00,,---,0.00,VWS V14.01,2013-04-12 01:13:00,
2013-04-11 21:18:00,69.9,65.0,29.88,South,180,0.6,1.6,84,0.00,,---,0.00,VWS V14.01,2013-04-12 01:18:00,
2013-04-11 21:23:00,69.7,65.2,29.89,WNW,292,4.3,6.3,85,0.00,,---,0.00,VWS V14.01,2013-04-12 01:23:00,
2013-04-11 21:28:00,69.5,65.3,29.89,SW,225,1.4,9.4,87,0.00,,---,0.00,VWS V14.01,2013-04-12 01:28:00,
2013-04-11 21:33:00,69.5,64.6,29.88,SSE,158,0.3,0.5,84,0.00,,---,0.00,VWS V14.01,2013-04-12 01:33:00,
2013-04-11 21:38:00,69.1,64.6,29.88,WNW,292,1.8,2.6,85,0.00,,---,0.00,VWS V14.01,2013-04-12 01:38:00,
2013-04-11 21:43:00,69.1,64.9,29.88,WSW,248,4.0,5.9,87,0.00,,---,0.00,VWS V14.01,2013-04-12 01:43:00,
2013-04-11 21:48:00,69.1,64.6,29.88,SSW,202,1.1,1.6,85,0.00,,---,0.00,VWS V14.01,2013-04-12 01:48:00,
2013-04-11 21:53:00,69.0,64.8,29.88,WSW,248,1.8,8.0,87,0.00,,---,0.00,VWS V14.01,2013-04-12 01:53:00,
2013-04-11 21:58:00,69.0,64.8,29.88,WSW,248,1.4,7.3,87,0.00,,---,0.00,VWS V14.01,2013-04-12 01:58:00,
2013-04-11 22:03:00,69.0,64.5,29.88,SSE,158,1.4,3.1,85,0.00,,---,0.00,VWS V14.01,2013-04-12 02:03:00,
2013-04-11 22:08:00,68.8,64.6,29.88,South,180,6.1,8.9,87,0.00,,---,0.00,VWS V14.01,2013-04-12 02:08:00,
2013-04-11 22:13:00,68.8,64.6,29.88,WSW,248,2.9,4.7,87,0.00,,---,0.00,VWS V14.01,2013-04-12 02:13:00,
2013-04-11 22:18:00,68.6,64.4,29.88,ESE,112,2.1,8.0,87,0.00,,---,0.00,VWS V14.01,2013-04-12 02:18:00,
2013-04-11 22:23:00,68.6,64.4,29.87,SSW,202,3.5,5.2,87,0.00,,---,0.00,VWS V14.01,2013-04-12 02:23:00,
2013-04-11 22:28:00,68.4,64.6,29.87,North,0,1.8,6.3,88,0.00,,---,0.00,VWS V14.01,2013-04-12 02:28:00,
2013-04-11 22:33:00,68.4,64.9,29.88,SSW,202,4.0,8.0,89,0.00,,---,0.00,VWS V14.01,2013-04-12 02:33:00,
2013-04-11 22:38:00,68.2,64.7,29.87,WSW,248,3.5,7.3,89,0.00,,---,0.00,VWS V14.01,2013-04-12 02:38:00,
2013-04-11 22:43:00,68.2,64.7,29.87,SSW,202,1.8,8.9,89,0.00,,---,0.00,VWS V14.01,2013-04-12 02:43:00,
2013-04-11 22:48:00,68.2,64.7,29.87,SW,225,3.5,5.2,89,0.00,,---,0.00,VWS V14.01,2013-04-12 02:48:00,
2013-04-11 22:53:00,68.1,64.6,29.86,SSW,202,1.8,5.9,89,0.00,,---,0.00,VWS V14.01,2013-04-12 02:53:00,
2013-04-11 22:58:00,68.1,64.9,29.86,WNW,292,0.6,5.9,90,0.00,,---,0.00,VWS V14.01,2013-04-12 02:58:00,
2013-04-11 23:04:00,68.1,65.3,29.86,SW,225,5.4,8.0,91,0.00,,---,0.00,VWS V14.01,2013-04-12 03:04:00,
2013-04-11 23:09:00,68.2,65.4,29.86,SSW,202,5.4,15.7,91,0.00,,---,0.00,VWS V14.01,2013-04-12 03:09:00,
2013-04-11 23:14:00,68.4,65.2,29.86,SW,225,0.6,6.3,90,0.00,,---,0.00,VWS V14.01,2013-04-12 03:14:00,
2013-04-11 23:19:00,68.4,65.2,29.86,East,90,1.8,4.7,90,0.00,,---,0.00,VWS V14.01,2013-04-12 03:19:00,
2013-04-11 23:24:00,68.8,66.0,29.85,SSE,158,1.4,18.3,91,0.00,,---,0.00,VWS V14.01,2013-04-12 03:24:00,
2013-04-11 23:29:00,68.8,66.0,29.85,SW,225,2.6,8.0,91,0.00,,---,0.00,VWS V14.01,2013-04-12 03:29:00,
2013-04-11 23:34:00,69.0,66.2,29.85,SSW,202,0.6,14.8,91,0.00,,---,0.00,VWS V14.01,2013-04-12 03:34:00,
2013-04-11 23:39:00,69.0,66.5,29.86,SW,225,6.4,10.6,92,0.00,,---,0.00,VWS V14.01,2013-04-12 03:39:00,
2013-04-11 23:44:00,69.1,66.6,29.86,South,180,2.1,17.4,92,0.00,,---,0.00,VWS V14.01,2013-04-12 03:44:00,
2013-04-11 23:49:00,69.1,66.2,29.86,ESE,112,4.0,5.9,91,0.00,,---,0.00,VWS V14.01,2013-04-12 03:49:00,
2013-04-11 23:54:00,69.1,66.2,29.86,WSW,248,3.5,5.9,91,0.00,,---,0.00,VWS V14.01,2013-04-12 03:54:00,
2013-04-11 23:59:00,69.1,66.2,29.86,SSE,158,0.6,7.3,91,0.00,,---,0.00,VWS V14.01,2013-04-12 03:59:00,